Regional Weather Roundup
Issued by NWS Mobile, AL

Home | Current Version | Previous Version | Text Only | Print | Product List | Glossary On
Versions: 1 2 3 4 5 6 7 8 9 10 11 12 13 14 15 16 17 18 19 20 21 22 23 24 25 26 27 28 29 30 31 32 33 34 35 36 37 38 39 40 41 42 43 44 45 46 47 48 49 50
997
ASUS44 KMOB 180012
RWRMOB
REGIONAL WEATHER ROUNDUP
NATIONAL WEATHER SERVICE MOBILE AL
600 PM CST TUE JAN 17 2017

NOTE: "FAIR" INDICATES FEW OR NO CLOUDS BELOW 12,000 FEET WITH NO
      SIGNIFICANT WEATHER AND/OR OBSTRUCTIONS TO VISIBILITY.

  * THESE STATIONS ARE PART OF THE UNIVERSITY OF SOUTH ALABAMA
    MESONET AND ARE NOT UNDER NWS OR FAA QUALITY CONTROL.

ALZ061>064-180100-
COASTAL ALABAMA

CITY           SKY/WX    TMP DP  RH WIND       PRES   REMARKS
MOBILE REG APT MOCLDY    70  67  90 S7        30.16S
6HR MIN TEMP:  70; 6HR MAX TEMP:  79; 6HR PCP: TRACE;

BROOKLEY FIELD MOCLDY    70  69  97 S5        30.17S
6HR MIN TEMP:  70; 6HR MAX TEMP:  75;

USA CAMPUS*      N/A     70  66  88 CALM      30.16S
DOG RIVER*       N/A     68  68 100 S5        30.96F


CITY           SKY/WX    TMP DP  RH WIND       PRES   REMARKS
GULF SHORES    CLOUDY    65  65 100 SE5       30.16F

$$

ALZ051>060-180100-
INTERIOR SOUTHWEST AND SOUTH CENTRAL ALABAMA

CITY           SKY/WX    TMP DP  RH WIND       PRES   REMARKS
GREENVILLE     CLOUDY    71  59  65 S3        30.17R
6HR MIN TEMP:  71; 6HR MAX TEMP:  78;

EVERGREEN      MOCLDY    67  62  84 S3        30.17S
6HR MIN TEMP:  67; 6HR MAX TEMP:  78; 6HR PCP: TRACE;

ATMORE*          N/A     68  68 100 S5        30.19S
ANDALUSIA/OPP  MOCLDY    71  62  73 CALM      30.18R
6HR MIN TEMP:  71; 6HR MAX TEMP:  80;

ANDALUSIA*       N/A     70  63  78 S2        30.18R
FLORALA APT    PTCLDY    67  61  81 S5        30.21R
6HR MIN TEMP:  67; 6HR MAX TEMP:  77;

FLORALA*         N/A     66  63  88 CALM      30.96R

$$

FLZ001>006-180100-
WESTERN FLORIDA PANHANDLE

CITY           SKY/WX    TMP DP  RH WIND       PRES   REMARKS
PENSACOLA      PTCLDY    69  65  86 S5        30.17S
6HR MIN TEMP:  69; 6HR MAX TEMP:  78;

NAS PENSACOLA  CLOUDY    69  66  90 SE8       30.16F
6HR MIN TEMP:  69; 6HR MAX TEMP:  76;

MILTON         MOCLDY    69  66  90 S8        30.18R
6HR MIN TEMP:  69; 6HR MAX TEMP:  78;

WHTNG S FIELD  PTCLDY    71  67  87 S6        30.18S
6HR MIN TEMP:  71; 6HR MAX TEMP:  80;



CITY           SKY/WX    TMP DP  RH WIND       PRES   REMARKS
JAY*             N/A     68  64  88 SE6       30.18S
DUKE FIELD     MOCLDY    67  64  92 S6        30.18R
CRESTVIEW      PTCLDY    69  64  84 S5        30.20R
6HR MIN TEMP:  69; 6HR MAX TEMP:  80;

VALPARAISO     PTCLDY    67  65  93 SE3       30.19R
6HR MIN TEMP:  67; 6HR MAX TEMP:  76;

DESTIN         MOCLDY    69  67  93 SE7       30.19R
6HR MIN TEMP:  69; 6HR MAX TEMP:  76;


$$

MSZ076-079-180100-
INTERIOR SOUTHEAST MISSISSIPPI

CITY           SKY/WX    TMP DP  RH WIND       PRES   REMARKS
LEAKESVILLE*   NOT AVBL
AGRICOLA*      NOT AVBL

$$

MARINE OBSERVATIONS

STATION/POSITION TIME  TEMP    WIND        PRES    WAVE
                       AIR SEA DIR/SP/G            HT/PER
                 (UTC) (F)     (DEG/KT/KT) (MB)    (FT/S)
PASCAGOULA       2348   67     130/  7/ 10 1020.8F
PETIT BOIS ISLND 2348   65     130/  6/  7 1021.6F
GRAND BAY        2245   67     140/  7     1022.0R
KATRINA CUT      2330          130/  9     1020.6F
CEDAR POINT      2330   67     140/  6     1021.0F
E DAUPHIN ISLAND 2300   67     130/  8/  8 1021.0R
MIDDLE BAY LIGHT 2330   67     120/  9     1020.6F
USCG MOBILE BAY  2348   68 61  180/  5/  7 1021.9F
STATE DOCKS      2348      59              1021.1F
MEAHER PARK      2330   70     160/  8     1021.0F
WEEKS BAY        2230   73                   N/A
FORT MORGAN      2348   68     150/ 12/ 12   N/A
12 S ORANGE BCH  2250   68 67  100/  4/  6 1021.4R   3/ 6
PENSACOLA BAY    2348      64  100/  1/  3 1022.0R
67 S FORT MORGAN 2330   72                 1021.3R

$$

SELECTED LOCATIONS ACROSS THE REGION

CITY           SKY/WX    TMP DP  RH WIND       PRES   REMARKS
NEW ORLEANS    CLOUDY    72  66  81 S8        30.14R
GULFPORT       FOG       67  67 100 SE7       30.14R VSB 1/2
PASCAGOULA AP  CLOUDY    68  65  90 SE5       30.16R
PASCAGOULA*    NOT AVBL
HATTIESBURG    CLOUDY    71  64  78 S6        30.14R
LAUREL         PTCLDY    70  59  68 S5        30.15R
MERIDIAN       CLOUDY    69  63  81 CALM      30.13S
JACKSON        CLOUDY    68  60  75 N7        30.13R
MONTGOMERY     PTCLDY    68  55  63 S3        30.17R
TROY           PTCLDY    67  60  78 CALM      30.19R
ASHFORD*         N/A     70  63  78 S2        30.18R
DOTHAN         MOCLDY    68  63  84 S5        30.22R
PANAMA CITY    PTCLDY    67  64  90 CALM      30.19R

$$





USA.gov is the U.S. government's official web portal to all federal, state and local government web resources and services.